Location: *
(51.1248°S, 108.4023°W)
Time: 14:02:00
(UTC+00:00)

CZ-4 R/B - Visible Passes

Search period start: 22 October 2021 00:00
Search period end: 01 November 2021 00:00
Orbit: 530 x 596 km, 97.8° (Epoch: 21 October)

Date Brightness Start Highest point End Pass type
(mag) Time Alt. Az. Time Alt. Az. Time Alt. Az.
22 Oct 1.4 03:12:40 10° SSE 03:16:38 83° WSW 03:20:32 10° NNW visible
22 Oct 4.6 04:49:41 10° SW 04:50:56 11° SW 04:52:12 10° WSW visible
23 Oct 1.4 03:12:25 10° SSE 03:16:23 83° WSW 03:20:17 10° NNW visible
23 Oct 4.6 04:49:25 10° SW 04:50:42 11° SW 04:51:59 10° WSW visible
24 Oct 1.4 03:12:10 10° SSE 03:16:08 84° WSW 03:20:02 10° NNW visible
24 Oct 4.6 04:49:08 10° SW 04:50:27 11° SW 04:51:46 10° WSW visible
25 Oct 1.4 03:11:56 10° SSE 03:15:53 84° WSW 03:19:47 10° NNW visible
25 Oct 4.6 04:48:52 10° SW 04:50:12 12° SW 04:51:32 10° WSW visible
26 Oct 1.3 03:11:41 10° SSE 03:15:38 85° WSW 03:19:32 10° NNW visible
26 Oct 4.6 04:48:36 10° SW 04:49:58 12° SW 04:51:20 10° WSW visible
27 Oct 1.3 03:11:25 10° SSE 03:15:23 85° WSW 03:19:18 10° NNW visible
27 Oct 4.6 04:48:18 10° SW 04:49:43 12° SW 04:51:07 10° WSW visible
28 Oct 1.3 03:11:10 10° SSE 03:15:07 86° WSW 03:19:03 10° NNW visible
28 Oct 4.6 04:48:01 10° SW 04:49:27 12° SW 04:50:54 10° WSW visible
29 Oct 1.3 03:10:55 10° SSE 03:14:52 87° WSW 03:18:48 10° NNW visible
29 Oct 4.6 04:47:44 10° SW 04:49:13 12° SW 04:50:41 10° WSW visible
30 Oct 1.3 03:10:39 10° SSE 03:14:37 87° W 03:18:32 10° NNW visible
30 Oct 4.6 04:47:28 10° SSW 04:48:58 12° SW 04:50:28 10° WSW visible
31 Oct 1.3 03:10:24 10° SSE 03:14:21 88° W 03:18:17 10° NNW visible
31 Oct 4.6 04:47:11 10° SSW 04:48:42 12° SW 04:50:14 10° W visible
